Simultaneous Nadir Overpasses (SNOs) Predictions

Prediction of SNOs over PacNW region [( 10.00, 139.50) to ( 22.70, 165.60)] between NOAA-19 and NPP Satellites:

Table of predicted SNOs over PacNW region for the next 30.0 days since TLE Epoch: 4/12/2013
Index Date (NOAA-19) Time (NOAA-19) NOAA-19 Lat,Lon Date (NPP) Time (NPP) NPP Lat,Lon Distance(km) Time Diff (sec)
1 04/13/2013 03:45:22 22.37, 144.23 04/13/2013 03:45:27 21.66, 141.10 332.55 5
2 04/13/2013 16:21:42 10.00, 140.40 04/13/2013 16:18:05 8.39, 137.72 344.24 217
3 04/25/2013 03:12:50 10.09, 154.52 04/25/2013 03:16:26 8.44, 150.56 471.65 216
4 04/25/2013 15:49:31 21.03, 150.38 04/25/2013 15:49:03 21.71, 147.21 336.87 28
5 04/26/2013 03:05:31 22.68, 154.22 04/26/2013 03:01:54 24.23, 151.55 321.83 217
6 05/07/2013 15:19:53 22.60, 158.14 05/07/2013 15:23:13 23.52, 154.02 434.05 200
7 05/08/2013<
